Flag for China Weather past 2 weeks in Hohhot, Inner Mongolia, China

Now
57 °F

Clear.


Feels Like: 56 °F
Forecast: 36 / 59 °F
Wind: 6 mph from West

Location: Hohhot Airport

Current Time: Mar 27, 2015 at 7:18:24 PM

Latest Report: Mar 27, 2015 at 7:00 PM


Visibility: 10 mi

Pressure: 29.98 "Hg

Humidity: 33%

Dew point: 28 °F

Location of HohhotLocation

Historic Weather in Hohhot — Graph

°F

Hohhot temperature yesterday

Maximum temperature yesterday: 55 °F (at 5:00 PM)
Minimum temperature yesterday: 30 °F (at 4:00 AM)
Average temperature yesterday: 43 °F

Past Weeks' High & Low Weather Summary

 TemperatureHumidityPressure
High61 °F (Mar 16, 4:00 PM)80% (Mar 27, 2:00 AM)30.42 "Hg (Mar 27, 2:00 AM)
Low14 °F (Mar 15, 5:00 AM)8% (Mar 22, 6:00 PM)29.80 "Hg (Mar 15, 6:00 PM)
Average39 °F32%30.13 "Hg
* Reported Mar 12 6:00 PM — Mar 27 6:00 PM, Hohhot, Weather by CustomWeather, © 2015

Note: Actual official high and low records may vary slightly from our data, if they occured in-between our weather recording intervals... More about our weather records

Advertising

Hohhot weather history for previous 24 hours

 ConditionsComfort  
Time TempWeatherWind HumidityBarometerVisibility
6:00 PM
Fri, Mar 27
59 °FSunny.13 mph29%29.98 "Hg10 mi
5:00 PM61 °FSunny.15 mph29%29.98 "Hg10 mi
4:00 PM61 °FSunny.17 mph29%30.01 "Hg10 mi
3:00 PM59 °FSunny.17 mph34%30.04 "Hg10 mi
2:00 PM57 °FSunny.15 mph33%30.07 "Hg10 mi
1:00 PM55 °FSunny.10 mph36%30.12 "Hg10 mi
12:00 PM52 °FClear.8 mph41%30.15 "Hg6 mi
11:00 AM48 °FClear.6 mph46%30.21 "Hg6 mi
10:00 AM46 °FClear.8 mph50%30.21 "Hg5 mi
9:00 AM43 °FSunny.3 mph53%30.21 "Hg10 mi
8:00 AM37 °FClear.1 mph65%30.24 "Hg4 mi
7:00 AM32 °FClear.3 mph69%30.24 "Hg4 mi
6:00 AM30 °FClear.3 mph80%30.21 "Hg4 mi
5:00 AM32 °FClear.3 mph75%30.24 "Hg4 mi
4:00 AM34 °FFog.1 mph70%30.24 "Hg3 mi
3:00 AM30 °FIce fog.6 mph80%30.24 "Hg3 mi
2:00 AM30 °FIce fog.6 mph80%30.24 "Hg3 mi
1:00 AM32 °FIce fog.3 mph75%30.24 "Hg3 mi
12:00 AM34 °FFog.3 mph70%30.27 "Hg3 mi
11:00 PM
Thu, Mar 26
37 °FHaze.3 mph60%30.27 "Hg3 mi
10:00 PM39 °FHaze.3 mph56%30.27 "Hg3 mi
9:00 PM43 °FHaze.3 mph53%30.27 "Hg3 mi
8:00 PM48 °FHaze.1 mph46%30.24 "Hg2 mi
7:00 PM50 °FHaze.3 mph43%30.24 "Hg3 mi
Weather by CustomWeather, © 2015

See weather overviewHow to use our weather pages